Location: *
(43.7000°S, 168.7000°W)
Time: 14:13:26
(UTC+00:00)

Meteor 1-22 Rocket - Pass Details

Date: 07 July 2020
Orbit: 787 x 941 km, 81.2° (Epoch: 03 August)

Event Time Altitude Azimuth Distance (km) Brightness Sun altitude
Exits shadow 16:20:10 11° 188° (S) 2,604 6.6 -25.9°
Maximum altitude 16:26:09 80° 100° (E) 971 4.5 -24.8°
Drops below altitude 10° 16:32:16 10° 13° (NNE) 2,647 7.0 -23.7°
Sets 16:34:43 0° 12° (NNE) 3,572 7.7 -23.3°
